This demonstration page uses our WeatherBlox Daily Observations layout. Learn more.

Left ArrowRight Arrow

Hourly Observations for September 6, 2017

Temp ( °F °C ) Dew Point ( °F °C ) Humidity (%) Winds ( mph kmh ) Pressure ( in mb ) Visibility ( mi km ) Precip ( " mm )
12:54 am 00:54 Clear 50 10 45 7.2 83 83 N 5 7 30.2 1023 10 16.0934 0 0
1:54 am 01:54 Clear 46 7.8 43 6.1 89 89 N 3 6 30.2 1023 10 16.0934 0 0
2:54 am 02:54 Clear 46 7.8 44 6.7 93 93 NNW 3 6 30.19 1023 10 16.0934 0 0
3:54 am 03:54 Clear 46 7.8 44 6.7 93 93 N 3 6 30.2 1023 10 16.0934 0 0
4:54 am 04:54 Clear 45 7.2 43 6.1 93 93 Calm 30.19 1023 10 16.0934 0 0
5:54 am 05:54 Clear 46 7.8 43 6.1 89 89 Calm 30.2 1023 10 16.0934 0 0
6:54 am 06:54 Clear 45 7.2 42 5.6 90 90 Calm 30.22 1023 10 16.0934 0 0
7:54 am 07:54 Sunny 48 8.9 45 7.2 89 89 Calm 30.22 1023 10 16.0934 0 0
8:54 am 08:54 Sunny 57 13.9 48 8.9 72 72 N 3 6 30.22 1023 10 16.0934 0 0
9:54 am 09:54 Sunny 61 16.1 49 9.4 65 65 Calm 30.22 1023 10 16.0934 0 0
10:54 am 10:54 Sunny 66 18.9 45 7.2 47 47 N 5 7 30.22 1023 10 16.0934 0 0
11:54 am 11:54 Mostly Sunny 69 20.6 43 6.1 39 39 NNW 13 20 30.21 1023 10 16.0934 0 0
12:54 pm 12:54 Partly Cloudy 71 21.7 42 5.6 35 35 N 12 19 30.19 1022 10 16.0934 0 0
1:54 pm 13:54 Partly Cloudy 71 21.7 42 5.6 35 35 N 16 26 30.18 1022 8 12.87472 0 0
2:54 pm 14:54 Mostly Cloudy 71 21.7 40 4.4 32 32 NNW 18 30 30.16 1021 10 16.0934 0 0
3:54 pm 15:54 Mostly Cloudy 69 20.6 42 5.6 38 38 NNE 12 19 30.16 1021 10 16.0934 0 0
4:54 pm 16:54 Mostly Cloudy 72 22.2 43 6.1 35 35 N 7 11 30.14 1021 10 16.0934 0 0
5:54 pm 17:54 Sunny 70 21.1 41 5 35 35 NNW 12 19 30.14 1021 10 16.0934 0 0
6:54 pm 18:54 Sunny 67 19.4 43 6.1 42 42 N 7 11 30.14 1021 10 16.0934 0 0
7:54 pm 19:54 Clear 61 16.1 45 7.2 56 56 NE 6 9 30.14 1021 10 16.0934 0 0
8:54 pm 20:54 Clear 57 13.9 45 7.2 64 64 NE 5 7 30.14 1021 10 16.0934 0 0
9:54 pm 21:54 Clear 58 14.4 47 8.3 67 67 Calm 30.15 1021 10 16.0934 0 0
10:54 pm 22:54 Clear 50 10 46 7.8 86 86 Calm 30.16 1021 10 16.0934 0 0
11:54 pm 23:54 Clear 49 9.4 45 7.2 86 86 N 5 7 30.16 1021 9 14.48406 0 0

Powered by AerisWeather